| time (UTC) | temp F | wind direction | speed MPH | gust MPH | rain 1hr in | rain 24hr in | rain mn in | humidity % | barometer mb |
| 20260901023051 | 68 | 145 | 0.0 | 3.0 | 0.00 | 0.58 | 0.16 | 89 | 1019.2 |
| 20260901021549 | 67 | 165 | 0.0 | 2.0 | 0.00 | 0.58 | 0.16 | 89 | 1019.4 |
| 20260901020047 | 67 | 0 | 0.0 | 1.0 | 0.00 | 0.58 | 0.16 | 89 | 1019.6 |
| 20260901014600 | 68 | 0 | 0.0 | 1.0 | 0.00 | 0.58 | 0.16 | 89 | 1019.5 |
| 20260901013054 | 68 | 133 | 0.0 | 2.0 | 0.00 | 0.58 | 0.16 | 89 | 1019.5 |
| 20260901011545 | 68 | 0 | 1.0 | 3.0 | 0.00 | 0.58 | 0.16 | 89 | 1019.5 |
| 20260901010054 | 68 | 180 | 0.0 | 3.0 | 0.00 | 0.58 | 0.16 | 88 | 1019.4 |
| 20260901004548 | 68 | 0 | 0.0 | 4.0 | 0.00 | 0.58 | 0.16 | 87 | 1019.3 |
| 20260901003100 | 68 | 157 | 0.0 | 3.0 | 0.00 | 0.58 | 0.16 | 86 | 1019.3 |
| 20260901001554 | 68 | 182 | 0.0 | 3.0 | 0.00 | 0.58 | 0.16 | 86 | 1019.4 |
| 20260901000106 | 68 | 140 | 0.0 | 3.0 | 0.00 | 0.58 | 0.16 | 86 | 1019.4 |
| 20260831234612 | 68 | 0 | 0.0 | 2.0 | 0.00 | 0.58 | 0.16 | 86 | 1019.6 |
| 20260831233049 | 68 | 126 | 0.0 | 5.0 | 0.00 | 0.58 | 0.16 | 86 | 1019.5 |
| 20260831231555 | 68 | 166 | 1.0 | 4.0 | 0.00 | 0.58 | 0.16 | 86 | 1019.6 |
| 20260831230051 | 68 | 0 | 0.0 | 4.0 | 0.00 | 0.58 | 0.16 | 86 | 1019.6 |
| 20260831224545 | 68 | 156 | 0.0 | 2.0 | 0.00 | 0.58 | 0.16 | 85 | 1019.7 |
| 20260831223054 | 69 | 0 | 0.0 | 2.0 | 0.00 | 0.58 | 0.16 | 85 | 1019.7 |
| 20260831221551 | 69 | 0 | 1.0 | 5.0 | 0.00 | 0.58 | 0.16 | 85 | 1019.8 |
| 20260831220049 | 69 | 165 | 1.0 | 5.0 | 0.00 | 0.58 | 0.16 | 85 | 1019.7 |
| 20260831214549 | 69 | 158 | 1.0 | 5.0 | 0.00 | 0.58 | 0.16 | 85 | 1019.9 |
| 20260831213053 | 69 | 194 | 1.0 | 5.0 | 0.00 | 0.58 | 0.16 | 84 | 1019.9 |
| 20260831211548 | 70 | 0 | 0.0 | 7.0 | 0.00 | 0.58 | 0.16 | 83 | 1020.0 |
| 20260831210046 | 71 | 157 | 2.0 | 4.0 | 0.00 | 0.58 | 0.16 | 81 | 1019.8 |
| 20260831204605 | 72 | 159 | 1.0 | 8.0 | 0.00 | 0.58 | 0.16 | 80 | 1019.7 |
| 20260831203049 | 72 | 154 | 1.0 | 6.0 | 0.00 | 0.58 | 0.16 | 80 | 1019.5 |
| 20260831201548 | 72 | 181 | 2.0 | 6.0 | 0.00 | 0.58 | 0.16 | 80 | 1019.8 |
| 20260831200056 | 71 | 174 | 2.0 | 5.0 | 0.00 | 0.58 | 0.16 | 80 | 1019.9 |
| 20260831194555 | 71 | 0 | 1.0 | 7.0 | 0.00 | 0.58 | 0.16 | 80 | 1020.0 |
| 20260831193047 | 71 | 182 | 1.0 | 7.0 | 0.00 | 0.58 | 0.16 | 80 | 1020.0 |
| 20260831191544 | 71 | 159 | 0.0 | 4.0 | 0.00 | 0.58 | 0.16 | 79 | 1020.2 |
| 20260831190044 | 72 | 189 | 2.0 | 7.0 | 0.00 | 0.58 | 0.16 | 74 | 1020.3 |
| 20260831184549 | 74 | 152 | 2.0 | 5.0 | 0.00 | 0.58 | 0.16 | 67 | 1020.5 |
| 20260831183045 | 75 | 192 | 2.0 | 6.0 | 0.00 | 0.58 | 0.16 | 68 | 1020.6 |
| 20260831181549 | 75 | 157 | 1.0 | 5.0 | 0.00 | 0.58 | 0.16 | 72 | 1020.5 |
| 20260831180055 | 76 | 153 | 2.0 | 5.0 | 0.00 | 0.58 | 0.16 | 75 | 1020.6 |
| 20260831174548 | 75 | 217 | 0.0 | 6.0 | 0.00 | 0.58 | 0.16 | 76 | 1020.7 |
| 20260831173048 | 74 | 182 | 1.0 | 4.0 | 0.00 | 0.58 | 0.16 | 75 | 1020.6 |
| 20260831171544 | 76 | 344 | 1.0 | 5.0 | 0.00 | 0.58 | 0.16 | 72 | 1020.4 |
| 20260831170054 | 75 | 355 | 2.0 | 6.0 | 0.00 | 0.58 | 0.16 | 75 | 1020.6 |
| 20260831164547 | 75 | 0 | 1.0 | 5.0 | 0.00 | 0.58 | 0.16 | 75 | 1020.8 |
| 20260831163049 | 75 | 300 | 0.0 | 8.0 | 0.00 | 0.58 | 0.16 | 76 | 1020.9 |
| 20260831161603 | 75 | 25 | 3.0 | 8.0 | 0.00 | 0.58 | 0.16 | 74 | 1020.9 |
| 20260831160055 | 75 | 287 | 3.0 | 8.0 | 0.00 | 0.58 | 0.16 | 74 | 1020.7 |
| 20260831154618 | 74 | 336 | 4.0 | 8.0 | 0.00 | 0.58 | 0.16 | 76 | 1020.9 |
| 20260831153055 | 73 | 340 | 3.0 | 9.0 | 0.00 | 0.58 | 0.16 | 78 | 1021.1 |
| 20260831151555 | 72 | 0 | 1.0 | 5.0 | 0.00 | 0.58 | 0.16 | 76 | 1021.1 |
| 20260831150051 | 71 | 13 | 1.0 | 9.0 | 0.00 | 0.58 | 0.16 | 78 | 1021.1 |
| 20260831144543 | 70 | 20 | 1.0 | 9.0 | 0.00 | 0.58 | 0.16 | 79 | 1021.0 |
| 20260831143103 | 70 | 0 | 2.0 | 13.0 | 0.00 | 0.58 | 0.16 | 83 | 1021.0 |
| 20260831141546 | 70 | 33 | 3.0 | 8.0 | 0.00 | 0.58 | 0.16 | 84 | 1020.9 |
| 20260831140048 | 69 | 32 | 2.0 | 9.0 | 0.00 | 0.58 | 0.16 | 84 | 1020.8 |
| 20260831134550 | 68 | 93 | 3.0 | 12.0 | 0.00 | 0.58 | 0.16 | 82 | 1020.5 |
| 20260831133046 | 68 | 32 | 3.0 | 13.0 | 0.00 | 0.58 | 0.16 | 85 | 1020.4 |
| 20260831131545 | 67 | 17 | 4.0 | 11.0 | 0.00 | 0.58 | 0.16 | 87 | 1020.4 |
| 20260831130057 | 67 | 53 | 5.0 | 14.0 | 0.00 | 0.58 | 0.16 | 88 | 1020.4 |
| 20260831124545 | 66 | 61 | 4.0 | 13.0 | 0.00 | 0.58 | 0.16 | 90 | 1020.5 |
| 20260831123055 | 66 | 32 | 5.0 | 11.0 | 0.00 | 0.58 | 0.16 | 93 | 1020.3 |
| 20260831121554 | 65 | 24 | 5.0 | 11.0 | 0.00 | 0.58 | 0.16 | 96 | 1020.2 |
| 20260831120046 | 65 | 35 | 2.0 | 9.0 | 0.00 | 0.58 | 0.16 | 97 | 1020.2 |
| 20260831114552 | 65 | 42 | 3.0 | 8.0 | 0.00 | 0.58 | 0.16 | 98 | 1020.1 |
| 20260831113053 | 65 | 17 | 4.0 | 10.0 | 0.00 | 0.58 | 0.16 | 98 | 1020.1 |
| 20260831111550 | 64 | 27 | 2.0 | 6.0 | 0.00 | 0.58 | 0.16 | 97 | 1019.8 |
| 20260831110057 | 64 | 19 | 1.0 | 6.0 | 0.00 | 0.58 | 0.16 | 97 | 1020.0 |
| 20260831104550 | 64 | 13 | 2.0 | 5.0 | 0.00 | 0.58 | 0.16 | 97 | 1019.8 |
| 20260831103047 | 64 | 40 | 2.0 | 5.0 | 0.00 | 0.58 | 0.16 | 97 | 1019.7 |
| 20260831101556 | 64 | 25 | 2.0 | 5.0 | 0.00 | 0.58 | 0.16 | 97 | 1019.5 |
| 20260831100050 | 64 | 16 | 2.0 | 5.0 | 0.00 | 0.58 | 0.16 | 97 | 1019.2 |
| 20260831094545 | 64 | 22 | 1.0 | 3.0 | 0.00 | 0.58 | 0.16 | 98 | 1019.0 |
| 20260831093046 | 64 | 9 | 1.0 | 4.0 | 0.00 | 0.58 | 0.16 | 97 | 1018.9 |
| 20260831091548 | 65 | 360 | 1.0 | 7.0 | 0.00 | 0.58 | 0.16 | 97 | 1018.7 |
| 20260831090045 | 65 | 13 | 2.0 | 5.0 | 0.00 | 0.58 | 0.16 | 98 | 1018.8 |
| 20260831084547 | 65 | 10 | 2.0 | 5.0 | 0.00 | 0.58 | 0.16 | 98 | 1018.7 |
| 20260831083056 | 65 | 355 | 2.0 | 8.0 | 0.00 | 0.58 | 0.16 | 98 | 1018.7 |
| 20260831081545 | 66 | 350 | 2.0 | 5.0 | 0.00 | 0.58 | 0.16 | 98 | 1018.5 |
| 20260831080057 | 66 | 355 | 2.0 | 4.0 | 0.00 | 0.58 | 0.16 | 98 | 1018.6 |
| 20260831074547 | 66 | 341 | 1.0 | 4.0 | 0.00 | 0.58 | 0.16 | 98 | 1018.6 |
| 20260831073052 | 66 | 340 | 1.0 | 5.0 | 0.00 | 0.58 | 0.16 | 98 | 1018.5 |
| 20260831071547 | 67 | 22 | 2.0 | 8.0 | 0.00 | 0.58 | 0.16 | 98 | 1018.4 |
| 20260831070108 | 67 | 360 | 2.0 | 8.0 | 0.00 | 0.58 | 0.16 | 98 | 1018.2 |
| 20260831064606 | 67 | 355 | 3.0 | 10.0 | 0.00 | 0.58 | 0.16 | 98 | 1018.1 |
| 20260831063048 | 67 | 355 | 3.0 | 9.0 | 0.00 | 0.58 | 0.16 | 98 | 1018.0 |
| 20260831061546 | 67 | 306 | 2.0 | 6.0 | 0.00 | 0.58 | 0.16 | 98 | 1017.9 |
| 20260831060047 | 67 | 331 | 1.0 | 5.0 | 0.00 | 0.58 | 0.16 | 98 | 1017.8 |
| 20260831054601 | 67 | 348 | 0.0 | 4.0 | 0.01 | 0.58 | 0.16 | 98 | 1017.9 |
| 20260831053046 | 68 | 0 | 1.0 | 5.0 | 0.01 | 0.58 | 0.16 | 98 | 1017.9 |
| 20260831051552 | 68 | 10 | 1.0 | 6.0 | 0.01 | 0.58 | 0.16 | 98 | 1017.7 |
| 20260831050051 | 68 | 278 | 1.0 | 3.0 | 0.13 | 0.58 | 0.16 | 97 | 1017.6 |
| 20260831044604 | 68 | 318 | 0.0 | 8.0 | 0.22 | 0.58 | 0.15 | 97 | 1017.6 |
| 20260831043044 | 69 | 274 | 1.0 | 4.0 | 0.28 | 0.58 | 0.15 | 97 | 1017.6 |
| 20260831041609 | 70 | 269 | 1.0 | 11.0 | 0.34 | 0.58 | 0.15 | 98 | 1017.6 |
| 20260831040101 | 70 | 216 | 0.0 | 3.0 | 0.26 | 0.44 | 0.01 | 97 | 1017.8 |
| 20260831034556 | 70 | 0 | 0.0 | 0.0 | 0.34 | 0.36 | 0.36 | 97 | 1017.8 |
| 20260831033051 | 70 | 0 | 0.0 | 0.0 | 0.29 | 0.30 | 0.30 | 96 | 1017.8 |
| 20260831031545 | 70 | 0 | 0.0 | 2.0 | 0.23 | 0.24 | 0.24 | 96 | 1018.0 |
| 20260831030051 | 70 | 0 | 0.0 | 2.0 | 0.17 | 0.17 | 0.17 | 95 | 1017.8 |
| 20260831024553 | 70 | 0 | 0.0 | 3.0 | 0.02 | 0.02 | 0.02 | 94 | 1018.1 |